Volver al catálogo

COSMOS 886 DEB

ActivoUNKNOWN
NORAD 15555·DEBRIS·🇷🇺 Russia

Lanzado Dec 27, 1976 desde Baikonur Cosmodrome

Loading…

Próximos Pases (próximas 24 horas)

TLE

ActualizadoSource: Space-Track

Época: Sep 14, 2026, 12:04 UTC

1 15555U 76126BT  26257.50325084  .00000094  00000-0  16850-3 0  9998
2 15555  65.7817 215.6143 0953147 144.3847 222.4761 12.53558107578011

Sigue COSMOS 886 DEB en tiempo real con AllMySat

Download on the App Store